owner,sensor,date,latitude,longitude,vertical_datum,sea_water_practical_salinity,qcFlag 
ENP,ioos.station.NOAA.NDBC:LBRF1:1,2017-05-01T00:00:00Z,25.4840,-81.1330,1.5,34.9,11111222 
ENP,ioos.station.NOAA.NDBC:LBRF1:1,2017-05-01T06:00:00Z,25.4840,-81.1330,1.5,30.3,11111222 
ENP,ioos.station.NOAA.NDBC:LBRF1:1,2017-05-01T07:00:00Z,25.4840,-81.1330,1.5,29.92,1111122 
ENP,ioos.station.NOAA.NDBC:LBRF1:1,2017-05-01T08:00:00Z,25.4840,-81.1330,1.5,29.77,1111122 
ENP,ioos.station.NOAA.NDBC:LBRF1:1,2017-05-01T10:00:00Z,25.4840,-81.1330,1.5,30.06,1111122 
ENP,ioos.station.NOAA.NDBC:LBRF1:1,2017-05-01T11:00:00Z,25.4840,-81.1330,1.5,33.1,11111222 
ENP,ioos.station.NOAA.NDBC:LBRF1:1,2017-05-01T12:00:00Z,25.4840,-81.1330,1.5,34.0,11111222 
ENP,ioos.station.NOAA.NDBC:LBRF1:1,2017-05-01T13:00:00Z,25.4840,-81.1330,1.5,34.0,1111122 
ENP,ioos.station.NOAA.NDBC:LBRF1:1,2017-05-01T14:00:00Z,25.4840,-81.1330,1.5,34.07,1111122 
ENP,ioos.station.NOAA.NDBC:LBRF1:1,2017-05-01T15:00:00Z,25.4840,-81.1330,1.5,33.85,1111122 
ENP,ioos.station.NOAA.NDBC:LBRF1:1,2017-05-01T16:00:00Z,25.4840,-81.1330,1.5,33.12,1111122 
ENP,ioos.station.NOAA.NDBC:LBRF1:1,2017-05-01T17:00:00Z,25.4840,-81.1330,1.5,31.58,1111122 
ENP,ioos.station.NOAA.NDBC:LBRF1:1,2017-05-01T18:00:00Z,25.4840,-81.1330,1.5,30.86,1111122 
ENP,ioos.station.NOAA.NDBC:LBRF1:1,2017-05-01T19:00:00Z,25.4840,-81.1330,1.5,30.93,1111122 
ENP,ioos.station.NOAA.NDBC:LBRF1:1,2017-05-01T21:00:00Z,25.4840,-81.1330,1.5,33.6,11111222 
ENP,ioos.station.NOAA.NDBC:LBRF1:1,2017-05-01T22:00:00Z,25.4840,-81.1330,1.5,33.9,11111222 
ENP,ioos.station.NOAA.NDBC:LBRF1:1,2017-05-01T23:00:00Z,25.4840,-81.1330,1.5,34.22,1111122 
ENP,ioos.station.NOAA.NDBC:LBRF1:1,2017-05-02T00:00:00Z,25.4840,-81.1330,1.5,34.4,11111222 
ENP,ioos.station.NOAA.NDBC:LBRF1:1,2017-05-02T06:00:00Z,25.4840,-81.1330,1.5,31.0,1111122 
ENP,ioos.station.NOAA.NDBC:LBRF1:1,2017-05-02T07:00:00Z,25.4840,-81.1330,1.5,30.21,1111122 
ENP,ioos.station.NOAA.NDBC:LBRF1:1,2017-05-02T08:00:00Z,25.4840,-81.1330,1.5,29.99,1111122 
ENP,ioos.station.NOAA.NDBC:LBRF1:1,2017-05-02T10:00:00Z,25.4840,-81.1330,1.5,29.92,1111122 
ENP,ioos.station.NOAA.NDBC:LBRF1:1,2017-05-02T11:00:00Z,25.4840,-81.1330,1.5,31.8,11111222 
ENP,ioos.station.NOAA.NDBC:LBRF1:1,2017-05-02T12:00:00Z,25.4840,-81.1330,1.5,33.6,11111222 
ENP,ioos.station.NOAA.NDBC:LBRF1:1,2017-05-02T13:00:00Z,25.4840,-81.1330,1.5,33.9,11111222 
ENP,ioos.station.NOAA.NDBC:LBRF1:1,2017-05-02T14:00:00Z,25.4840,-81.1330,1.5,34.0,11111222 
ENP,ioos.station.NOAA.NDBC:LBRF1:1,2017-05-02T15:00:00Z,25.4840,-81.1330,1.5,34.0,11111222 
ENP,ioos.station.NOAA.NDBC:LBRF1:1,2017-05-02T16:00:00Z,25.4840,-81.1330,1.5,34.1,11111222 
ENP,ioos.station.NOAA.NDBC:LBRF1:1,2017-05-02T17:00:00Z,25.4840,-81.1330,1.5,33.92,1111122 
ENP,ioos.station.NOAA.NDBC:LBRF1:1,2017-05-02T18:00:00Z,25.4840,-81.1330,1.5,33.4,11111222 
ENP,ioos.station.NOAA.NDBC:LBRF1:1,2017-05-02T19:00:00Z,25.4840,-81.1330,1.5,32.7,11111222 
ENP,ioos.station.NOAA.NDBC:LBRF1:1,2017-05-02T20:00:00Z,25.4840,-81.1330,1.5,32.5,11111222 
ENP,ioos.station.NOAA.NDBC:LBRF1:1,2017-05-02T21:00:00Z,25.4840,-81.1330,1.5,33.2,11111222 
ENP,ioos.station.NOAA.NDBC:LBRF1:1,2017-05-02T22:00:00Z,25.4840,-81.1330,1.5,33.6,11111222 
ENP,ioos.station.NOAA.NDBC:LBRF1:1,2017-05-02T23:00:00Z,25.4840,-81.1330,1.5,33.8,11111222 
ENP,ioos.station.NOAA.NDBC:LBRF1:1,2017-05-03T00:00:00Z,25.4840,-81.1330,1.5,34.07,1111122 
ENP,ioos.station.NOAA.NDBC:LBRF1:1,2017-05-03T03:00:00Z,25.4840,-81.1330,1.5,34.1,11111222 
ENP,ioos.station.NOAA.NDBC:LBRF1:1,2017-05-03T06:00:00Z,25.4840,-81.1330,1.5,32.82,1111122 
ENP,ioos.station.NOAA.NDBC:LBRF1:1,2017-05-03T07:00:00Z,25.4840,-81.1330,1.5,31.5,11111222 
ENP,ioos.station.NOAA.NDBC:LBRF1:1,2017-05-03T08:00:00Z,25.4840,-81.1330,1.5,30.28,1111122 
ENP,ioos.station.NOAA.NDBC:LBRF1:1,2017-05-03T10:00:00Z,25.4840,-81.1330,1.5,29.6,11111222 
ENP,ioos.station.NOAA.NDBC:LBRF1:1,2017-05-03T11:00:00Z,25.4840,-81.1330,1.5,29.3,11111222 
ENP,ioos.station.NOAA.NDBC:LBRF1:1,2017-05-03T12:00:00Z,25.4840,-81.1330,1.5,29.9,11111222 
ENP,ioos.station.NOAA.NDBC:LBRF1:1,2017-05-03T13:00:00Z,25.4840,-81.1330,1.5,31.7,11111222 
ENP,ioos.station.NOAA.NDBC:LBRF1:1,2017-05-03T14:00:00Z,25.4840,-81.1330,1.5,32.75,1111122 
ENP,ioos.station.NOAA.NDBC:LBRF1:1,2017-05-03T15:00:00Z,25.4840,-81.1330,1.5,32.9,11111222 
ENP,ioos.station.NOAA.NDBC:LBRF1:1,2017-05-03T16:00:00Z,25.4840,-81.1330,1.5,33.0,11111222 
ENP,ioos.station.NOAA.NDBC:LBRF1:1,2017-05-03T17:00:00Z,25.4840,-81.1330,1.5,33.0,11111222 
ENP,ioos.station.NOAA.NDBC:LBRF1:1,2017-05-03T18:00:00Z,25.4840,-81.1330,1.5,32.2,11111222 
ENP,ioos.station.NOAA.NDBC:LBRF1:1,2017-05-03T19:00:00Z,25.4840,-81.1330,1.5,30.86,1111122 
ENP,ioos.station.NOAA.NDBC:LBRF1:1,2017-05-03T20:00:00Z,25.4840,-81.1330,1.5,30.0,11111222 
ENP,ioos.station.NOAA.NDBC:LBRF1:1,2017-05-03T21:00:00Z,25.4840,-81.1330,1.5,29.5,11111222 
ENP,ioos.station.NOAA.NDBC:LBRF1:1,2017-05-03T22:00:00Z,25.4840,-81.1330,1.5,29.4,11111222 
ENP,ioos.station.NOAA.NDBC:LBRF1:1,2017-05-03T23:00:00Z,25.4840,-81.1330,1.5,29.5,11111222 
ENP,ioos.station.NOAA.NDBC:LBRF1:1,2017-05-04T00:00:00Z,25.4840,-81.1330,1.5,30.7,11111222 
ENP,ioos.station.NOAA.NDBC:LBRF1:1,2017-05-04T03:00:00Z,25.4840,-81.1330,1.5,32.9,1111122 
ENP,ioos.station.NOAA.NDBC:LBRF1:1,2017-05-04T06:00:00Z,25.4840,-81.1330,1.5,32.24,1111122 
ENP,ioos.station.NOAA.NDBC:LBRF1:1,2017-05-04T07:00:00Z,25.4840,-81.1330,1.5,30.86,1111122 
ENP,ioos.station.NOAA.NDBC:LBRF1:1,2017-05-04T08:00:00Z,25.4840,-81.1330,1.5,29.63,1111122 
ENP,ioos.station.NOAA.NDBC:LBRF1:1,2017-05-04T10:00:00Z,25.4840,-81.1330,1.5,27.9,11111222 
ENP,ioos.station.NOAA.NDBC:LBRF1:1,2017-05-04T11:00:00Z,25.4840,-81.1330,1.5,27.6,11111222 
ENP,ioos.station.NOAA.NDBC:LBRF1:1,2017-05-04T12:00:00Z,25.4840,-81.1330,1.5,27.62,1111122 
ENP,ioos.station.NOAA.NDBC:LBRF1:1,2017-05-04T13:00:00Z,25.4840,-81.1330,1.5,28.3,11111222 
ENP,ioos.station.NOAA.NDBC:LBRF1:1,2017-05-04T14:00:00Z,25.4840,-81.1330,1.5,31.22,1111122 
ENP,ioos.station.NOAA.NDBC:LBRF1:1,2017-05-04T15:00:00Z,25.4840,-81.1330,1.5,32.6,1111122 
ENP,ioos.station.NOAA.NDBC:LBRF1:1,2017-05-04T16:00:00Z,25.4840,-81.1330,1.5,33.0,11111222 
ENP,ioos.station.NOAA.NDBC:LBRF1:1,2017-05-04T17:00:00Z,25.4840,-81.1330,1.5,33.12,1111122 
ENP,ioos.station.NOAA.NDBC:LBRF1:1,2017-05-04T18:00:00Z,25.4840,-81.1330,1.5,33.0,11111222 
ENP,ioos.station.NOAA.NDBC:LBRF1:1,2017-05-04T19:00:00Z,25.4840,-81.1330,1.5,33.0,11111222 
ENP,ioos.station.NOAA.NDBC:LBRF1:1,2017-05-04T20:00:00Z,25.4840,-81.1330,1.5,32.7,11111222 
ENP,ioos.station.NOAA.NDBC:LBRF1:1,2017-05-04T21:00:00Z,25.4840,-81.1330,1.5,32.0,11111222 
ENP,ioos.station.NOAA.NDBC:LBRF1:1,2017-05-04T22:00:00Z,25.4840,-81.1330,1.5,31.0,11111222 
ENP,ioos.station.NOAA.NDBC:LBRF1:1,2017-05-04T23:00:00Z,25.4840,-81.1330,1.5,30.5,11111222 
ENP,ioos.station.NOAA.NDBC:LBRF1:1,2017-05-05T00:00:00Z,25.4840,-81.1330,1.5,30.6,11111222 
ENP,ioos.station.NOAA.NDBC:LBRF1:1,2017-05-05T03:00:00Z,25.4840,-81.1330,1.5,32.7,11111222 
ENP,ioos.station.NOAA.NDBC:LBRF1:1,2017-05-05T06:00:00Z,25.4840,-81.1330,1.5,32.97,1111122 
ENP,ioos.station.NOAA.NDBC:LBRF1:1,2017-05-05T07:00:00Z,25.4840,-81.1330,1.5,32.7,11111222 
ENP,ioos.station.NOAA.NDBC:LBRF1:1,2017-05-05T08:00:00Z,25.4840,-81.1330,1.5,32.3,11111222 
ENP,ioos.station.NOAA.NDBC:LBRF1:1,2017-05-05T10:00:00Z,25.4840,-81.1330,1.5,30.06,1111122 
ENP,ioos.station.NOAA.NDBC:LBRF1:1,2017-05-05T11:00:00Z,25.4840,-81.1330,1.5,29.2,1111122 
ENP,ioos.station.NOAA.NDBC:LBRF1:1,2017-05-05T12:00:00Z,25.4840,-81.1330,1.5,29.8,11111222 
ENP,ioos.station.NOAA.NDBC:LBRF1:1,2017-05-05T13:00:00Z,25.4840,-81.1330,1.5,31.29,1111122 
ENP,ioos.station.NOAA.NDBC:LBRF1:1,2017-05-05T14:00:00Z,25.4840,-81.1330,1.5,32.6,1111122 
ENP,ioos.station.NOAA.NDBC:LBRF1:1,2017-05-05T15:00:00Z,25.4840,-81.1330,1.5,33.41,1111122 
ENP,ioos.station.NOAA.NDBC:LBRF1:1,2017-05-05T16:00:00Z,25.4840,-81.1330,1.5,33.77,1111122 
ENP,ioos.station.NOAA.NDBC:LBRF1:1,2017-05-05T17:00:00Z,25.4840,-81.1330,1.5,34.1,11111222 
ENP,ioos.station.NOAA.NDBC:LBRF1:1,2017-05-05T18:00:00Z,25.4840,-81.1330,1.5,34.0,11111222 
ENP,ioos.station.NOAA.NDBC:LBRF1:1,2017-05-05T19:00:00Z,25.4840,-81.1330,1.5,34.0,1111122 
ENP,ioos.station.NOAA.NDBC:LBRF1:1,2017-05-05T20:00:00Z,25.4840,-81.1330,1.5,33.9,11111222 
ENP,ioos.station.NOAA.NDBC:LBRF1:1,2017-05-05T21:00:00Z,25.4840,-81.1330,1.5,33.6,11111222 
ENP,ioos.station.NOAA.NDBC:LBRF1:1,2017-05-05T22:00:00Z,25.4840,-81.1330,1.5,33.4,11111222 
ENP,ioos.station.NOAA.NDBC:LBRF1:1,2017-05-05T23:00:00Z,25.4840,-81.1330,1.5,32.6,11111222 
ENP,ioos.station.NOAA.NDBC:LBRF1:1,2017-05-06T00:00:00Z,25.4840,-81.1330,1.5,32.5,11111222 
ENP,ioos.station.NOAA.NDBC:LBRF1:1,2017-05-06T03:00:00Z,25.4840,-81.1330,1.5,32.8,11111222 
ENP,ioos.station.NOAA.NDBC:LBRF1:1,2017-05-06T06:00:00Z,25.4840,-81.1330,1.5,33.33,1111122 
ENP,ioos.station.NOAA.NDBC:LBRF1:1,2017-05-06T07:00:00Z,25.4840,-81.1330,1.5,33.8,11111222 
ENP,ioos.station.NOAA.NDBC:LBRF1:1,2017-05-06T08:00:00Z,25.4840,-81.1330,1.5,33.7,11111222 
ENP,ioos.station.NOAA.NDBC:LBRF1:1,2017-05-06T10:00:00Z,25.4840,-81.1330,1.5,33.33,1111122 
ENP,ioos.station.NOAA.NDBC:LBRF1:1,2017-05-06T11:00:00Z,25.4840,-81.1330,1.5,33.12,1111122 
ENP,ioos.station.NOAA.NDBC:LBRF1:1,2017-05-06T12:00:00Z,25.4840,-81.1330,1.5,32.24,1111122 
ENP,ioos.station.NOAA.NDBC:LBRF1:1,2017-05-06T13:00:00Z,25.4840,-81.1330,1.5,31.95,1111122 
ENP,ioos.station.NOAA.NDBC:LBRF1:1,2017-05-06T14:00:00Z,25.4840,-81.1330,1.5,31.87,1111122 
ENP,ioos.station.NOAA.NDBC:LBRF1:1,2017-05-06T15:00:00Z,25.4840,-81.1330,1.5,31.87,1111122 
ENP,ioos.station.NOAA.NDBC:LBRF1:1,2017-05-06T16:00:00Z,25.4840,-81.1330,1.5,32.09,1111122 
ENP,ioos.station.NOAA.NDBC:LBRF1:1,2017-05-06T17:00:00Z,25.4840,-81.1330,1.5,32.82,1111122 
ENP,ioos.station.NOAA.NDBC:LBRF1:1,2017-05-06T18:00:00Z,25.4840,-81.1330,1.5,33.12,1111122 
ENP,ioos.station.NOAA.NDBC:LBRF1:1,2017-05-06T19:00:00Z,25.4840,-81.1330,1.5,33.2,11111222 
ENP,ioos.station.NOAA.NDBC:LBRF1:1,2017-05-06T20:00:00Z,25.4840,-81.1330,1.5,32.8,11111222 
ENP,ioos.station.NOAA.NDBC:LBRF1:1,2017-05-06T21:00:00Z,25.4840,-81.1330,1.5,32.0,11111222 
ENP,ioos.station.NOAA.NDBC:LBRF1:1,2017-05-06T22:00:00Z,25.4840,-81.1330,1.5,31.5,11111222 
ENP,ioos.station.NOAA.NDBC:LBRF1:1,2017-05-06T23:00:00Z,25.4840,-81.1330,1.5,30.4,11111222 
ENP,ioos.station.NOAA.NDBC:LBRF1:1,2017-05-07T00:00:00Z,25.4840,-81.1330,1.5,29.2,1111122 
ENP,ioos.station.NOAA.NDBC:LBRF1:1,2017-05-07T03:00:00Z,25.4840,-81.1330,1.5,29.2,1111122 
ENP,ioos.station.NOAA.NDBC:LBRF1:1,2017-05-07T06:00:00Z,25.4840,-81.1330,1.5,32.75,1111122 
ENP,ioos.station.NOAA.NDBC:LBRF1:1,2017-05-07T08:00:00Z,25.4840,-81.1330,1.5,32.82,1111122 
ENP,ioos.station.NOAA.NDBC:LBRF1:1,2017-05-07T11:00:00Z,25.4840,-81.1330,1.5,29.4,11111222 
ENP,ioos.station.NOAA.NDBC:LBRF1:1,2017-05-07T12:00:00Z,25.4840,-81.1330,1.5,28.1,11111222 
ENP,ioos.station.NOAA.NDBC:LBRF1:1,2017-05-07T13:00:00Z,25.4840,-81.1330,1.5,27.7,11111222 
ENP,ioos.station.NOAA.NDBC:LBRF1:1,2017-05-07T14:00:00Z,25.4840,-81.1330,1.5,27.6,11111222 
ENP,ioos.station.NOAA.NDBC:LBRF1:1,2017-05-07T15:00:00Z,25.4840,-81.1330,1.5,27.8,11111222 
ENP,ioos.station.NOAA.NDBC:LBRF1:1,2017-05-07T16:00:00Z,25.4840,-81.1330,1.5,29.3,11111222 
ENP,ioos.station.NOAA.NDBC:LBRF1:1,2017-05-07T17:00:00Z,25.4840,-81.1330,1.5,32.2,11111222 
ENP,ioos.station.NOAA.NDBC:LBRF1:1,2017-05-07T18:00:00Z,25.4840,-81.1330,1.5,32.9,11111222 
ENP,ioos.station.NOAA.NDBC:LBRF1:1,2017-05-07T19:00:00Z,25.4840,-81.1330,1.5,33.4,11111222 
ENP,ioos.station.NOAA.NDBC:LBRF1:1,2017-05-07T20:00:00Z,25.4840,-81.1330,1.5,33.0,11111222 
ENP,ioos.station.NOAA.NDBC:LBRF1:1,2017-05-07T21:00:00Z,25.4840,-81.1330,1.5,31.7,11111222 
ENP,ioos.station.NOAA.NDBC:LBRF1:1,2017-05-07T22:00:00Z,25.4840,-81.1330,1.5,27.8,11111222 
ENP,ioos.station.NOAA.NDBC:LBRF1:1,2017-05-07T23:00:00Z,25.4840,-81.1330,1.5,28.3,11111222 
ENP,ioos.station.NOAA.NDBC:LBRF1:1,2017-05-08T00:00:00Z,25.4840,-81.1330,1.5,27.0,11111222 
ENP,ioos.station.NOAA.NDBC:LBRF1:1,2017-05-08T03:00:00Z,25.4840,-81.1330,1.5,26.6,11111222 
ENP,ioos.station.NOAA.NDBC:LBRF1:1,2017-05-08T06:00:00Z,25.4840,-81.1330,1.5,30.6,11111222 
ENP,ioos.station.NOAA.NDBC:LBRF1:1,2017-05-08T07:00:00Z,25.4840,-81.1330,1.5,31.7,11111222 
ENP,ioos.station.NOAA.NDBC:LBRF1:1,2017-05-08T08:00:00Z,25.4840,-81.1330,1.5,31.7,11111222 
ENP,ioos.station.NOAA.NDBC:LBRF1:1,2017-05-08T10:00:00Z,25.4840,-81.1330,1.5,28.19,1111122 
ENP,ioos.station.NOAA.NDBC:LBRF1:1,2017-05-08T11:00:00Z,25.4840,-81.1330,1.5,27.12,1111122 
ENP,ioos.station.NOAA.NDBC:LBRF1:1,2017-05-08T12:00:00Z,25.4840,-81.1330,1.5,26.7,11111222 
ENP,ioos.station.NOAA.NDBC:LBRF1:1,2017-05-08T13:00:00Z,25.4840,-81.1330,1.5,26.1,11111222 
ENP,ioos.station.NOAA.NDBC:LBRF1:1,2017-05-08T14:00:00Z,25.4840,-81.1330,1.5,25.9,11111222 
ENP,ioos.station.NOAA.NDBC:LBRF1:1,2017-05-08T15:00:00Z,25.4840,-81.1330,1.5,26.1,11111222 
ENP,ioos.station.NOAA.NDBC:LBRF1:1,2017-05-08T16:00:00Z,25.4840,-81.1330,1.5,26.7,11111222 
ENP,ioos.station.NOAA.NDBC:LBRF1:1,2017-05-08T17:00:00Z,25.4840,-81.1330,1.5,29.1,11111222 
ENP,ioos.station.NOAA.NDBC:LBRF1:1,2017-05-08T18:00:00Z,25.4840,-81.1330,1.5,32.0,11111222 
ENP,ioos.station.NOAA.NDBC:LBRF1:1,2017-05-08T19:00:00Z,25.4840,-81.1330,1.5,32.8,11111222 
ENP,ioos.station.NOAA.NDBC:LBRF1:1,2017-05-08T20:00:00Z,25.4840,-81.1330,1.5,33.2,11111222 
ENP,ioos.station.NOAA.NDBC:LBRF1:1,2017-05-08T21:00:00Z,25.4840,-81.1330,1.5,32.68,1111122 
ENP,ioos.station.NOAA.NDBC:LBRF1:1,2017-05-08T22:00:00Z,25.4840,-81.1330,1.5,31.2,11111222 
ENP,ioos.station.NOAA.NDBC:LBRF1:1,2017-05-08T23:00:00Z,25.4840,-81.1330,1.5,28.1,11111222 
ENP,ioos.station.NOAA.NDBC:LBRF1:1,2017-05-09T00:00:00Z,25.4840,-81.1330,1.5,26.8,11111222 
ENP,ioos.station.NOAA.NDBC:LBRF1:1,2017-05-09T06:00:00Z,25.4840,-81.1330,1.5,29.85,1111122 
ENP,ioos.station.NOAA.NDBC:LBRF1:1,2017-05-09T07:00:00Z,25.4840,-81.1330,1.5,31.58,1111122 
ENP,ioos.station.NOAA.NDBC:LBRF1:1,2017-05-09T08:00:00Z,25.4840,-81.1330,1.5,32.31,1111122 
ENP,ioos.station.NOAA.NDBC:LBRF1:1,2017-05-09T10:00:00Z,25.4840,-81.1330,1.5,31.8,1111122 
ENP,ioos.station.NOAA.NDBC:LBRF1:1,2017-05-09T11:00:00Z,25.4840,-81.1330,1.5,29.85,1111122 
ENP,ioos.station.NOAA.NDBC:LBRF1:1,2017-05-09T12:00:00Z,25.4840,-81.1330,1.5,27.1,11111222 
ENP,ioos.station.NOAA.NDBC:LBRF1:1,2017-05-09T13:00:00Z,25.4840,-81.1330,1.5,26.41,1111122 
ENP,ioos.station.NOAA.NDBC:LBRF1:1,2017-05-09T14:00:00Z,25.4840,-81.1330,1.5,26.13,1111122 
ENP,ioos.station.NOAA.NDBC:LBRF1:1,2017-05-09T15:00:00Z,25.4840,-81.1330,1.5,26.13,1111122 
ENP,ioos.station.NOAA.NDBC:LBRF1:1,2017-05-09T17:00:00Z,25.4840,-81.1330,1.5,31.15,1111122 
ENP,ioos.station.NOAA.NDBC:LBRF1:1,2017-05-09T18:00:00Z,25.4840,-81.1330,1.5,32.6,1111122 
ENP,ioos.station.NOAA.NDBC:LBRF1:1,2017-05-09T19:00:00Z,25.4840,-81.1330,1.5,33.19,1111122 
ENP,ioos.station.NOAA.NDBC:LBRF1:1,2017-05-09T20:00:00Z,25.4840,-81.1330,1.5,14.53,1111122 
ENP,ioos.station.NOAA.NDBC:LBRF1:1,2017-05-09T21:00:00Z,25.4840,-81.1330,1.5,28.8,11111222 
ENP,ioos.station.NOAA.NDBC:LBRF1:1,2017-05-09T22:00:00Z,25.4840,-81.1330,1.5,28.1,11111222 
ENP,ioos.station.NOAA.NDBC:LBRF1:1,2017-05-09T23:00:00Z,25.4840,-81.1330,1.5,26.7,11111222 
ENP,ioos.station.NOAA.NDBC:LBRF1:1,2017-05-10T00:00:00Z,25.4840,-81.1330,1.5,24.8,11111222 
ENP,ioos.station.NOAA.NDBC:LBRF1:1,2017-05-10T06:00:00Z,25.4840,-81.1330,1.5,27.55,1111122 
ENP,ioos.station.NOAA.NDBC:LBRF1:1,2017-05-10T07:00:00Z,25.4840,-81.1330,1.5,30.93,1111122 
ENP,ioos.station.NOAA.NDBC:LBRF1:1,2017-05-10T08:00:00Z,25.4840,-81.1330,1.5,31.51,1111122 
ENP,ioos.station.NOAA.NDBC:LBRF1:1,2017-05-10T10:00:00Z,25.4840,-81.1330,1.5,31.15,1111122 
ENP,ioos.station.NOAA.NDBC:LBRF1:1,2017-05-10T11:00:00Z,25.4840,-81.1330,1.5,29.99,1111122 
ENP,ioos.station.NOAA.NDBC:LBRF1:1,2017-05-10T12:00:00Z,25.4840,-81.1330,1.5,27.0,11111222 
ENP,ioos.station.NOAA.NDBC:LBRF1:1,2017-05-10T15:00:00Z,25.4840,-81.1330,1.5,25.4,11111222 
ENP,ioos.station.NOAA.NDBC:LBRF1:1,2017-05-10T16:00:00Z,25.4840,-81.1330,1.5,25.78,1111122 
ENP,ioos.station.NOAA.NDBC:LBRF1:1,2017-05-10T17:00:00Z,25.4840,-81.1330,1.5,28.62,1111122 
ENP,ioos.station.NOAA.NDBC:LBRF1:1,2017-05-10T18:00:00Z,25.4840,-81.1330,1.5,31.87,1111122 
ENP,ioos.station.NOAA.NDBC:LBRF1:1,2017-05-10T19:00:00Z,25.4840,-81.1330,1.5,32.46,1111122 
ENP,ioos.station.NOAA.NDBC:LBRF1:1,2017-05-10T20:00:00Z,25.4840,-81.1330,1.5,32.9,1111122 
ENP,ioos.station.NOAA.NDBC:LBRF1:1,2017-05-10T21:00:00Z,25.4840,-81.1330,1.5,32.9,11111222 
ENP,ioos.station.NOAA.NDBC:LBRF1:1,2017-05-10T22:00:00Z,25.4840,-81.1330,1.5,32.6,11111222 
ENP,ioos.station.NOAA.NDBC:LBRF1:1,2017-05-10T23:00:00Z,25.4840,-81.1330,1.5,32.4,11111222 
ENP,ioos.station.NOAA.NDBC:LBRF1:1,2017-05-11T00:00:00Z,25.4840,-81.1330,1.5,31.15,1111122 
ENP,ioos.station.NOAA.NDBC:LBRF1:1,2017-05-11T03:00:00Z,25.4840,-81.1330,1.5,25.56,1111122 
ENP,ioos.station.NOAA.NDBC:LBRF1:1,2017-05-11T06:00:00Z,25.4840,-81.1330,1.5,27.55,1111122 
ENP,ioos.station.NOAA.NDBC:LBRF1:1,2017-05-11T07:00:00Z,25.4840,-81.1330,1.5,31.58,1111122 
ENP,ioos.station.NOAA.NDBC:LBRF1:1,2017-05-11T08:00:00Z,25.4840,-81.1330,1.5,32.31,1111122 
ENP,ioos.station.NOAA.NDBC:LBRF1:1,2017-05-11T10:00:00Z,25.4840,-81.1330,1.5,32.68,1111122 
ENP,ioos.station.NOAA.NDBC:LBRF1:1,2017-05-11T11:00:00Z,25.4840,-81.1330,1.5,32.31,1111122 
ENP,ioos.station.NOAA.NDBC:LBRF1:1,2017-05-11T12:00:00Z,25.4840,-81.1330,1.5,31.4,11111222 
ENP,ioos.station.NOAA.NDBC:LBRF1:1,2017-05-11T13:00:00Z,25.4840,-81.1330,1.5,28.98,1111122 
ENP,ioos.station.NOAA.NDBC:LBRF1:1,2017-05-11T15:00:00Z,25.4840,-81.1330,1.5,25.92,1111122 
ENP,ioos.station.NOAA.NDBC:LBRF1:1,2017-05-11T16:00:00Z,25.4840,-81.1330,1.5,26.13,1111122 
ENP,ioos.station.NOAA.NDBC:LBRF1:1,2017-05-11T17:00:00Z,25.4840,-81.1330,1.5,29.2,1111122 
ENP,ioos.station.NOAA.NDBC:LBRF1:1,2017-05-11T18:00:00Z,25.4840,-81.1330,1.5,31.95,1111122 
ENP,ioos.station.NOAA.NDBC:LBRF1:1,2017-05-11T19:00:00Z,25.4840,-81.1330,1.5,32.75,1111122 
ENP,ioos.station.NOAA.NDBC:LBRF1:1,2017-05-11T20:00:00Z,25.4840,-81.1330,1.5,33.19,1111122 
ENP,ioos.station.NOAA.NDBC:LBRF1:1,2017-05-11T21:00:00Z,25.4840,-81.1330,1.5,32.7,11111222 
ENP,ioos.station.NOAA.NDBC:LBRF1:1,2017-05-11T22:00:00Z,25.4840,-81.1330,1.5,33.2,11111222 
ENP,ioos.station.NOAA.NDBC:LBRF1:1,2017-05-11T23:00:00Z,25.4840,-81.1330,1.5,33.0,11111222 
ENP,ioos.station.NOAA.NDBC:LBRF1:1,2017-05-12T00:00:00Z,25.4840,-81.1330,1.5,32.09,1111122 
ENP,ioos.station.NOAA.NDBC:LBRF1:1,2017-05-12T03:00:00Z,25.4840,-81.1330,1.5,26.2,1111122 
ENP,ioos.station.NOAA.NDBC:LBRF1:1,2017-05-12T06:00:00Z,25.4840,-81.1330,1.5,25.99,1111122 
ENP,ioos.station.NOAA.NDBC:LBRF1:1,2017-05-12T07:00:00Z,25.4840,-81.1330,1.5,28.62,1111122 
ENP,ioos.station.NOAA.NDBC:LBRF1:1,2017-05-12T08:00:00Z,25.4840,-81.1330,1.5,31.58,1111122 
ENP,ioos.station.NOAA.NDBC:LBRF1:1,2017-05-12T10:00:00Z,25.4840,-81.1330,1.5,32.6,1111122 
ENP,ioos.station.NOAA.NDBC:LBRF1:1,2017-05-12T11:00:00Z,25.4840,-81.1330,1.5,32.53,1111122 
ENP,ioos.station.NOAA.NDBC:LBRF1:1,2017-05-12T12:00:00Z,25.4840,-81.1330,1.5,32.0,11111222 
ENP,ioos.station.NOAA.NDBC:LBRF1:1,2017-05-12T13:00:00Z,25.4840,-81.1330,1.5,30.42,1111122 
ENP,ioos.station.NOAA.NDBC:LBRF1:1,2017-05-12T14:00:00Z,25.4840,-81.1330,1.5,27.84,1111122 
ENP,ioos.station.NOAA.NDBC:LBRF1:1,2017-05-12T15:00:00Z,25.4840,-81.1330,1.5,26.34,1111122 
ENP,ioos.station.NOAA.NDBC:LBRF1:1,2017-05-12T16:00:00Z,25.4840,-81.1330,1.5,26.48,1111122 
ENP,ioos.station.NOAA.NDBC:LBRF1:1,2017-05-12T17:00:00Z,25.4840,-81.1330,1.5,29.77,1111122 
ENP,ioos.station.NOAA.NDBC:LBRF1:1,2017-05-12T18:00:00Z,25.4840,-81.1330,1.5,32.02,1111122 
ENP,ioos.station.NOAA.NDBC:LBRF1:1,2017-05-12T19:00:00Z,25.4840,-81.1330,1.5,33.04,1111122 
ENP,ioos.station.NOAA.NDBC:LBRF1:1,2017-05-12T20:00:00Z,25.4840,-81.1330,1.5,33.55,1111122 
ENP,ioos.station.NOAA.NDBC:LBRF1:1,2017-05-12T21:00:00Z,25.4840,-81.1330,1.5,33.6,11111222 
ENP,ioos.station.NOAA.NDBC:LBRF1:1,2017-05-12T22:00:00Z,25.4840,-81.1330,1.5,33.9,11111222 
ENP,ioos.station.NOAA.NDBC:LBRF1:1,2017-05-12T23:00:00Z,25.4840,-81.1330,1.5,33.7,11111222 
ENP,ioos.station.NOAA.NDBC:LBRF1:1,2017-05-13T00:00:00Z,25.4840,-81.1330,1.5,33.3,11111222 
ENP,ioos.station.NOAA.NDBC:LBRF1:1,2017-05-13T06:00:00Z,25.4840,-81.1330,1.5,27.1,11111222 
ENP,ioos.station.NOAA.NDBC:LBRF1:1,2017-05-13T07:00:00Z,25.4840,-81.1330,1.5,29.1,11111222 
ENP,ioos.station.NOAA.NDBC:LBRF1:1,2017-05-13T08:00:00Z,25.4840,-81.1330,1.5,32.2,11111222 
ENP,ioos.station.NOAA.NDBC:LBRF1:1,2017-05-13T10:00:00Z,25.4840,-81.1330,1.5,33.4,11111222 
ENP,ioos.station.NOAA.NDBC:LBRF1:1,2017-05-13T11:00:00Z,25.4840,-81.1330,1.5,33.3,11111222 
ENP,ioos.station.NOAA.NDBC:LBRF1:1,2017-05-13T12:00:00Z,25.4840,-81.1330,1.5,33.3,11111222 
ENP,ioos.station.NOAA.NDBC:LBRF1:1,2017-05-13T13:00:00Z,25.4840,-81.1330,1.5,33.0,11111222 
ENP,ioos.station.NOAA.NDBC:LBRF1:1,2017-05-13T14:00:00Z,25.4840,-81.1330,1.5,32.2,11111222 
ENP,ioos.station.NOAA.NDBC:LBRF1:1,2017-05-13T15:00:00Z,25.4840,-81.1330,1.5,30.7,11111222 
ENP,ioos.station.NOAA.NDBC:LBRF1:1,2017-05-13T16:00:00Z,25.4840,-81.1330,1.5,30.1,11111222 
ENP,ioos.station.NOAA.NDBC:LBRF1:1,2017-05-13T17:00:00Z,25.4840,-81.1330,1.5,31.4,11111222 
ENP,ioos.station.NOAA.NDBC:LBRF1:1,2017-05-13T18:00:00Z,25.4840,-81.1330,1.5,32.9,11111222 
ENP,ioos.station.NOAA.NDBC:LBRF1:1,2017-05-13T19:00:00Z,25.4840,-81.1330,1.5,33.3,11111222 
ENP,ioos.station.NOAA.NDBC:LBRF1:1,2017-05-13T20:00:00Z,25.4840,-81.1330,1.5,34.2,11111222 
ENP,ioos.station.NOAA.NDBC:LBRF1:1,2017-05-13T21:00:00Z,25.4840,-81.1330,1.5,34.1,11111222 
ENP,ioos.station.NOAA.NDBC:LBRF1:1,2017-05-13T22:00:00Z,25.4840,-81.1330,1.5,34.1,11111222 
ENP,ioos.station.NOAA.NDBC:LBRF1:1,2017-05-13T23:00:00Z,25.4840,-81.1330,1.5,34.4,11111222 
ENP,ioos.station.NOAA.NDBC:LBRF1:1,2017-05-14T00:00:00Z,25.4840,-81.1330,1.5,34.1,11111222 
ENP,ioos.station.NOAA.NDBC:LBRF1:1,2017-05-14T03:00:00Z,25.4840,-81.1330,1.5,32.5,11111222 
ENP,ioos.station.NOAA.NDBC:LBRF1:1,2017-05-14T06:00:00Z,25.4840,-81.1330,1.5,31.2,11111222 
ENP,ioos.station.NOAA.NDBC:LBRF1:1,2017-05-14T07:00:00Z,25.4840,-81.1330,1.5,31.7,11111222 
ENP,ioos.station.NOAA.NDBC:LBRF1:1,2017-05-14T08:00:00Z,25.4840,-81.1330,1.5,32.9,11111222 
ENP,ioos.station.NOAA.NDBC:LBRF1:1,2017-05-14T10:00:00Z,25.4840,-81.1330,1.5,34.0,11111222 
ENP,ioos.station.NOAA.NDBC:LBRF1:1,2017-05-14T11:00:00Z,25.4840,-81.1330,1.5,33.5,11111222 
ENP,ioos.station.NOAA.NDBC:LBRF1:1,2017-05-14T12:00:00Z,25.4840,-81.1330,1.5,34.0,11111222 
ENP,ioos.station.NOAA.NDBC:LBRF1:1,2017-05-14T13:00:00Z,25.4840,-81.1330,1.5,33.92,1111122 
ENP,ioos.station.NOAA.NDBC:LBRF1:1,2017-05-14T14:00:00Z,25.4840,-81.1330,1.5,33.63,1111122 
ENP,ioos.station.NOAA.NDBC:LBRF1:1,2017-05-14T15:00:00Z,25.4840,-81.1330,1.5,33.33,1111122 
ENP,ioos.station.NOAA.NDBC:LBRF1:1,2017-05-14T16:00:00Z,25.4840,-81.1330,1.5,32.97,1111122 
ENP,ioos.station.NOAA.NDBC:LBRF1:1,2017-05-14T17:00:00Z,25.4840,-81.1330,1.5,32.97,1111122 
ENP,ioos.station.NOAA.NDBC:LBRF1:1,2017-05-14T18:00:00Z,25.4840,-81.1330,1.5,33.26,1111122 
ENP,ioos.station.NOAA.NDBC:LBRF1:1,2017-05-14T19:00:00Z,25.4840,-81.1330,1.5,33.7,1111122 
ENP,ioos.station.NOAA.NDBC:LBRF1:1,2017-05-14T20:00:00Z,25.4840,-81.1330,1.5,33.77,1111122 
ENP,ioos.station.NOAA.NDBC:LBRF1:1,2017-05-14T21:00:00Z,25.4840,-81.1330,1.5,33.9,11111222 
ENP,ioos.station.NOAA.NDBC:LBRF1:1,2017-05-14T22:00:00Z,25.4840,-81.1330,1.5,34.0,11111222 
ENP,ioos.station.NOAA.NDBC:LBRF1:1,2017-05-14T23:00:00Z,25.4840,-81.1330,1.5,34.0,11111222 
ENP,ioos.station.NOAA.NDBC:LBRF1:1,2017-05-15T00:00:00Z,25.4840,-81.1330,1.5,33.9,11111222 
ENP,ioos.station.NOAA.NDBC:LBRF1:1,2017-05-15T03:00:00Z,25.4840,-81.1330,1.5,32.38,1111122 
ENP,ioos.station.NOAA.NDBC:LBRF1:1,2017-05-15T06:00:00Z,25.4840,-81.1330,1.5,29.27,1111122 
ENP,ioos.station.NOAA.NDBC:LBRF1:1,2017-05-15T07:00:00Z,25.4840,-81.1330,1.5,29.56,1111122 
ENP,ioos.station.NOAA.NDBC:LBRF1:1,2017-05-15T08:00:00Z,25.4840,-81.1330,1.5,30.13,1111122 
ENP,ioos.station.NOAA.NDBC:LBRF1:1,2017-05-15T10:00:00Z,25.4840,-81.1330,1.5,32.68,1111122 